Time,TemperatureF,DewpointF,PressureIn,WindDirection,WindDirectionDegrees,WindSpeedMPH,WindSpeedGustMPH,Humidity,HourlyPrecipIn,Conditions,Clouds,dailyrainin,SoftwareType,DateUTC
2013-01-27 00:00:00,52.0,52.0,30.20,SSE,161,0.0,0.0,98,0.00,,,0.00,weatherlink.com 1.10,2013-01-27 06:00:00,
2013-01-27 00:15:00,51.6,51.0,30.20,SSE,161,0.0,0.0,98,0.00,,,0.00,weatherlink.com 1.10,2013-01-27 06:15:00,
2013-01-27 00:30:00,51.3,51.0,30.20,SSE,161,0.0,0.0,98,0.00,,,0.00,weatherlink.com 1.10,2013-01-27 06:30:00,
2013-01-27 00:45:00,51.0,51.0,30.20,SSE,161,0.0,0.0,98,0.00,,,0.00,weatherlink.com 1.10,2013-01-27 06:45:00,
2013-01-27 01:00:00,50.7,50.0,30.20,SSE,161,0.0,0.0,98,0.00,,,0.00,weatherlink.com 1.10,2013-01-27 07:00:00,
2013-01-27 01:15:00,50.5,50.0,30.20,SSE,161,0.0,0.0,98,0.00,,,0.00,weatherlink.com 1.10,2013-01-27 07:15:00,
2013-01-27 01:30:00,50.2,50.0,30.20,SSE,161,0.0,0.0,98,0.00,,,0.00,weatherlink.com 1.10,2013-01-27 07:30:00,
2013-01-27 01:45:00,50.0,50.0,30.20,SSE,161,0.0,0.0,98,0.00,,,0.00,weatherlink.com 1.10,2013-01-27 07:45:00,
2013-01-27 02:00:00,49.7,49.0,30.20,SSE,161,0.0,0.0,98,0.00,,,0.00,weatherlink.com 1.10,2013-01-27 08:00:00,
2013-01-27 02:15:00,49.5,49.0,30.20,SSE,161,0.0,0.0,98,0.00,,,0.00,weatherlink.com 1.10,2013-01-27 08:15:00,
2013-01-27 02:30:00,49.2,49.0,30.20,SSE,161,0.0,0.0,98,0.00,,,0.00,weatherlink.com 1.10,2013-01-27 08:30:00,
2013-01-27 02:45:00,49.0,49.0,30.20,SSE,161,0.0,0.0,98,0.00,,,0.00,weatherlink.com 1.10,2013-01-27 08:45:00,
2013-01-27 03:00:00,48.7,48.0,30.20,SSE,161,0.0,0.0,98,0.00,,,0.00,weatherlink.com 1.10,2013-01-27 09:00:00,
2013-01-27 03:15:00,48.6,48.0,30.20,SSE,161,0.0,0.0,98,0.00,,,0.00,weatherlink.com 1.10,2013-01-27 09:15:00,
2013-01-27 03:30:00,48.4,48.0,30.20,SSE,161,0.0,0.0,99,0.00,,,0.00,weatherlink.com 1.10,2013-01-27 09:30:00,
2013-01-27 03:45:00,48.2,48.0,30.19,SSE,161,0.0,0.0,98,0.00,,,0.00,weatherlink.com 1.10,2013-01-27 09:45:00,
2013-01-27 04:00:00,47.9,48.0,30.19,SSE,161,0.0,0.0,99,0.00,,,0.00,weatherlink.com 1.10,2013-01-27 10:00:00,
2013-01-27 04:15:00,47.8,48.0,30.20,SSE,161,0.0,0.0,99,0.00,,,0.00,weatherlink.com 1.10,2013-01-27 10:15:00,
2013-01-27 04:30:00,47.6,47.0,30.20,SSE,161,0.0,0.0,99,0.00,,,0.00,weatherlink.com 1.10,2013-01-27 10:30:00,
2013-01-27 04:45:00,47.5,47.0,30.19,SSE,161,0.0,0.0,99,0.00,,,0.00,weatherlink.com 1.10,2013-01-27 10:45:00,
2013-01-27 05:00:00,47.4,47.0,30.19,SSE,161,0.0,0.0,99,0.00,,,0.00,weatherlink.com 1.10,2013-01-27 11:00:00,
2013-01-27 05:15:00,47.2,47.0,30.19,SSE,161,0.0,0.0,99,0.00,,,0.00,weatherlink.com 1.10,2013-01-27 11:15:00,
2013-01-27 05:30:00,46.9,47.0,30.20,SSE,161,0.0,0.0,99,0.00,,,0.00,weatherlink.com 1.10,2013-01-27 11:30:00,
2013-01-27 05:45:00,46.8,47.0,30.20,SSE,161,0.0,0.0,99,0.01,,,0.01,weatherlink.com 1.10,2013-01-27 11:45:00,
2013-01-27 06:00:00,46.7,47.0,30.20,SSE,161,0.0,0.0,99,0.01,,,0.01,weatherlink.com 1.10,2013-01-27 12:00:00,
2013-01-27 06:15:00,46.8,47.0,30.20,SSE,161,0.0,0.0,99,0.01,,,0.01,weatherlink.com 1.10,2013-01-27 12:15:00,
2013-01-27 06:31:00,46.8,47.0,30.20,SSE,161,0.0,0.0,99,0.01,,,0.01,weatherlink.com 1.10,2013-01-27 12:31:00,
2013-01-27 06:45:00,46.8,47.0,30.20,SSE,161,0.0,1.0,99,0.00,,,0.01,weatherlink.com 1.10,2013-01-27 12:45:00,
2013-01-27 07:00:00,46.8,47.0,30.21,SSE,161,0.0,3.0,99,0.00,,,0.01,weatherlink.com 1.10,2013-01-27 13:00:00,
2013-01-27 07:15:00,47.5,47.0,30.21,SSE,161,0.0,2.0,99,0.00,,,0.01,weatherlink.com 1.10,2013-01-27 13:15:00,
2013-01-27 07:30:00,48.8,49.0,30.21,ESE,107,0.0,1.0,100,0.00,,,0.01,weatherlink.com 1.10,2013-01-27 13:30:00,
2013-01-27 07:46:00,50.7,51.0,30.22,ESE,107,0.0,3.0,100,0.00,,,0.01,weatherlink.com 1.10,2013-01-27 13:46:00,
2013-01-27 08:00:00,53.2,53.0,30.22,ESE,106,1.0,3.0,100,0.00,,,0.01,weatherlink.com 1.10,2013-01-27 14:00:00,
2013-01-27 08:15:00,54.9,55.0,30.23,ESE,122,1.0,3.0,100,0.00,,,0.01,weatherlink.com 1.10,2013-01-27 14:15:00,
2013-01-27 08:30:00,56.0,56.0,30.23,SE,124,2.0,3.0,100,0.00,,,0.01,weatherlink.com 1.10,2013-01-27 14:30:00,
2013-01-27 08:46:00,57.0,57.0,30.23,ESE,113,3.0,4.0,100,0.00,,,0.01,weatherlink.com 1.10,2013-01-27 14:46:00,
2013-01-27 09:01:00,57.7,58.0,30.24,ENE,63,2.0,7.0,100,0.00,,,0.01,weatherlink.com 1.10,2013-01-27 15:01:00,
2013-01-27 09:16:00,58.3,58.0,30.24,ESE,111,4.0,7.0,100,0.00,,,0.01,weatherlink.com 1.10,2013-01-27 15:16:00,
2013-01-27 09:31:00,59.5,60.0,30.25,East,99,5.0,8.0,100,0.00,,,0.01,weatherlink.com 1.10,2013-01-27 15:31:00,
2013-01-27 09:46:00,61.4,61.0,30.25,ESE,121,3.0,8.0,100,0.00,,,0.01,weatherlink.com 1.10,2013-01-27 15:46:00,
2013-01-27 10:01:00,63.5,63.0,30.25,ESE,119,3.0,8.0,98,0.00,,,0.01,weatherlink.com 1.10,2013-01-27 16:01:00,
2013-01-27 10:16:00,65.8,63.0,30.25,SSE,150,6.0,9.0,89,0.00,,,0.01,weatherlink.com 1.10,2013-01-27 16:16:00,
2013-01-27 10:32:00,67.3,62.0,30.25,ESE,120,5.0,11.0,84,0.00,,,0.01,weatherlink.com 1.10,2013-01-27 16:32:00,
2013-01-27 10:47:00,68.7,63.0,30.24,ESE,103,4.0,11.0,82,0.00,,,0.01,weatherlink.com 1.10,2013-01-27 16:47:00,
2013-01-27 11:01:00,70.0,63.0,30.24,ESE,103,8.0,10.0,78,0.00,,,0.01,weatherlink.com 1.10,2013-01-27 17:01:00,
2013-01-27 11:17:00,71.1,63.0,30.23,SE,134,2.0,14.0,76,0.00,,,0.01,weatherlink.com 1.10,2013-01-27 17:17:00,
2013-01-27 11:32:00,71.1,62.0,30.23,ESE,121,14.0,15.0,74,0.00,,,0.01,weatherlink.com 1.10,2013-01-27 17:32:00,
2013-01-27 11:47:00,71.8,63.0,30.22,ESE,102,4.0,14.0,74,0.00,,,0.01,weatherlink.com 1.10,2013-01-27 17:47:00,
2013-01-27 12:02:00,72.3,62.0,30.21,SSE,152,4.0,11.0,71,0.00,,,0.01,weatherlink.com 1.10,2013-01-27 18:02:00,
2013-01-27 12:19:00,73.2,62.0,30.20,SSE,147,5.0,12.0,68,0.00,,,0.01,weatherlink.com 1.10,2013-01-27 18:19:00,
2013-01-27 12:31:00,73.3,62.0,30.20,SE,138,1.0,12.0,68,0.00,,,0.01,weatherlink.com 1.10,2013-01-27 18:31:00,
2013-01-27 12:46:00,72.8,62.0,30.19,ESE,120,4.0,8.0,70,0.00,,,0.01,weatherlink.com 1.10,2013-01-27 18:46:00,
2013-01-27 13:01:00,73.0,62.0,30.18,SE,135,0.0,10.0,68,0.00,,,0.01,weatherlink.com 1.10,2013-01-27 19:01:00,
2013-01-27 13:16:00,72.2,61.0,30.18,SE,138,2.0,11.0,69,0.00,,,0.01,weatherlink.com 1.10,2013-01-27 19:16:00,
2013-01-27 13:31:00,72.3,62.0,30.17,SSE,158,3.0,11.0,71,0.00,,,0.01,weatherlink.com 1.10,2013-01-27 19:31:00,
2013-01-27 13:46:00,73.1,61.0,30.17,SE,129,2.0,12.0,67,0.00,,,0.01,weatherlink.com 1.10,2013-01-27 19:46:00,
2013-01-27 14:01:00,73.1,61.0,30.16,ESE,113,5.0,10.0,67,0.00,,,0.01,weatherlink.com 1.10,2013-01-27 20:01:00,
2013-01-27 14:16:00,74.0,62.0,30.16,ESE,121,4.0,9.0,67,0.00,,,0.01,weatherlink.com 1.10,2013-01-27 20:16:00,
2013-01-27 14:31:00,72.7,62.0,30.16,East,86,5.0,9.0,69,0.00,,,0.01,weatherlink.com 1.10,2013-01-27 20:31:00,
2013-01-27 14:46:00,73.4,62.0,30.16,SE,140,4.0,8.0,68,0.00,,,0.01,weatherlink.com 1.10,2013-01-27 20:46:00,
2013-01-27 15:02:00,74.2,62.0,30.15,ESE,109,8.0,11.0,66,0.00,,,0.01,weatherlink.com 1.10,2013-01-27 21:02:00,
2013-01-27 15:16:00,73.3,62.0,30.16,ESE,111,1.0,6.0,68,0.00,,,0.01,weatherlink.com 1.10,2013-01-27 21:16:00,
2013-01-27 15:31:00,72.6,62.0,30.16,SE,132,3.0,12.0,69,0.00,,,0.01,weatherlink.com 1.10,2013-01-27 21:31:00,
2013-01-27 15:47:00,72.8,62.0,30.15,ESE,118,7.0,10.0,68,0.00,,,0.01,weatherlink.com 1.10,2013-01-27 21:47:00,
2013-01-27 16:01:00,72.3,62.0,30.15,East,91,3.0,12.0,70,0.00,,,0.01,weatherlink.com 1.10,2013-01-27 22:01:00,
2013-01-27 16:16:00,72.4,62.0,30.15,ESE,108,5.0,14.0,69,0.00,,,0.01,weatherlink.com 1.10,2013-01-27 22:16:00,
2013-01-27 16:32:00,71.8,62.0,30.15,SE,136,3.0,8.0,70,0.00,,,0.01,weatherlink.com 1.10,2013-01-27 22:32:00,
2013-01-27 16:46:00,71.0,62.0,30.16,SE,136,4.0,14.0,72,0.00,,,0.01,weatherlink.com 1.10,2013-01-27 22:46:00,
2013-01-27 17:02:00,70.3,61.0,30.16,SE,125,8.0,8.0,73,0.00,,,0.01,weatherlink.com 1.10,2013-01-27 23:02:00,
2013-01-27 17:16:00,69.5,61.0,30.16,ESE,106,7.0,8.0,74,0.00,,,0.01,weatherlink.com 1.10,2013-01-27 23:16:00,
2013-01-27 17:31:00,68.8,61.0,30.16,SE,140,5.0,11.0,76,0.00,,,0.01,weatherlink.com 1.10,2013-01-27 23:31:00,
2013-01-27 17:46:00,68.1,61.0,30.16,ESE,123,2.0,9.0,77,0.00,,,0.01,weatherlink.com 1.10,2013-01-27 23:46:00,
2013-01-27 18:01:00,67.2,61.0,30.17,ESE,113,4.0,10.0,79,0.00,,,0.01,weatherlink.com 1.10,2013-01-28 00:01:00,
2013-01-27 18:16:00,66.6,61.0,30.17,SE,136,3.0,10.0,81,0.00,,,0.01,weatherlink.com 1.10,2013-01-28 00:16:00,
2013-01-27 18:31:00,66.2,61.0,30.17,ESE,121,8.0,9.0,82,0.00,,,0.01,weatherlink.com 1.10,2013-01-28 00:31:00,
2013-01-27 18:46:00,65.6,60.0,30.18,SE,125,1.0,8.0,83,0.00,,,0.01,weatherlink.com 1.10,2013-01-28 00:46:00,
2013-01-27 19:01:00,65.1,61.0,30.17,ESE,119,3.0,7.0,85,0.00,,,0.01,weatherlink.com 1.10,2013-01-28 01:01:00,
2013-01-27 19:17:00,64.6,60.0,30.18,SE,137,3.0,8.0,86,0.00,,,0.01,weatherlink.com 1.10,2013-01-28 01:17:00,
2013-01-27 19:31:00,64.3,60.0,30.18,SE,142,1.0,9.0,87,0.00,,,0.01,weatherlink.com 1.10,2013-01-28 01:31:00,
2013-01-27 19:46:00,64.1,60.0,30.19,ESE,115,1.0,8.0,87,0.00,,,0.01,weatherlink.com 1.10,2013-01-28 01:46:00,
2013-01-27 20:02:00,63.7,60.0,30.19,ESE,108,5.0,8.0,88,0.00,,,0.01,weatherlink.com 1.10,2013-01-28 02:02:00,
2013-01-27 20:17:00,63.1,60.0,30.19,SE,126,4.0,8.0,89,0.00,,,0.01,weatherlink.com 1.10,2013-01-28 02:17:00,
2013-01-27 20:32:00,62.9,60.0,30.19,ESE,121,1.0,5.0,90,0.00,,,0.01,weatherlink.com 1.10,2013-01-28 02:32:00,
2013-01-27 20:46:00,62.5,60.0,30.19,ESE,116,2.0,7.0,91,0.00,,,0.01,weatherlink.com 1.10,2013-01-28 02:46:00,
2013-01-27 21:01:00,62.2,60.0,30.19,ESE,113,3.0,4.0,91,0.00,,,0.01,weatherlink.com 1.10,2013-01-28 03:01:00,
2013-01-27 21:17:00,61.8,60.0,30.19,East,101,2.0,4.0,92,0.00,,,0.01,weatherlink.com 1.10,2013-01-28 03:17:00,
2013-01-27 21:32:00,61.7,59.0,30.19,ESE,113,1.0,7.0,92,0.00,,,0.01,weatherlink.com 1.10,2013-01-28 03:32:00,
2013-01-27 21:46:00,60.6,59.0,30.20,ESE,123,2.0,2.0,93,0.00,,,0.01,weatherlink.com 1.10,2013-01-28 03:46:00,
2013-01-27 22:01:00,60.0,59.0,30.20,ESE,109,3.0,5.0,95,0.00,,,0.01,weatherlink.com 1.10,2013-01-28 04:01:00,
2013-01-27 22:17:00,60.4,59.0,30.19,ESE,115,4.0,7.0,96,0.00,,,0.01,weatherlink.com 1.10,2013-01-28 04:17:00,
2013-01-27 22:32:00,60.9,60.0,30.18,ESE,107,8.0,14.0,96,0.00,,,0.01,weatherlink.com 1.10,2013-01-28 04:32:00,
2013-01-27 22:47:00,61.1,60.0,30.18,ESE,113,7.0,11.0,96,0.00,,,0.01,weatherlink.com 1.10,2013-01-28 04:47:00,
2013-01-27 23:02:00,61.0,60.0,30.18,ESE,122,2.0,8.0,96,0.00,,,0.01,weatherlink.com 1.10,2013-01-28 05:02:00,
2013-01-27 23:17:00,61.0,60.0,30.18,SE,136,4.0,7.0,96,0.00,,,0.01,weatherlink.com 1.10,2013-01-28 05:17:00,
2013-01-27 23:32:00,61.0,60.0,30.18,ESE,115,2.0,9.0,96,0.00,,,0.01,weatherlink.com 1.10,2013-01-28 05:32:00,
2013-01-27 23:47:00,60.9,60.0,30.18,ESE,108,2.0,7.0,96,0.00,,,0.01,weatherlink.com 1.10,2013-01-28 05:47:00,